Location: Huesca
(42.1318°N, 0.4078°W)
Time: 21:17:49
(UTC+02:00)

DIWATA 2B (PO-101) - Pass Details

Date: 30 April 2024
Orbit: 575 x 589 km, 98.1° (Epoch: 20 May)

Event Time Altitude Azimuth Distance (km) Brightness Sun altitude
Exits shadow 05:51:39 - 184° (S) 2,502 ? -11.8°
Reaches altitude 10° 05:53:08 10° 189° (S) 1,911 ? -11.6°
Maximum altitude 05:57:05 42° 261° (W) 844 ? -11.0°
Drops below altitude 10° 06:01:03 10° 333° (NNW) 1,921 ? -10.4°
Sets 06:03:18 0° 340° (NNW) 2,824 ? -10.0°
